Weather Roundup
Issued by NWS

Home | Current Version | Previous Version | Text Only | Print | Product List | Glossary On
Versions: 1 2 3 4 5 6 7 8 9 10 11 12 13 14 15 16 17 18 19 20 21 22 23 24 25 26 27 28 29 30 31 32 33 34 35 36 37 38 39 40 41 42 43 44 45 46 47 48 49 50
492
NZUS93 KARX 031910
HRRWXR

CURRENT HOURLY OBSERVATIONS ACROSS
MUCH OF THE UPPER MISSISSIPPI VALLEY
NATIONAL WEATHER SERVICE LA CROSSE WI
100 PM CST SAT DEC 03 2016


...SOUTHEAST MINNESOTA...


CITY           SKY/WX    TMP DP  RH WIND       PRES   REMARKS
ROCHESTER      CLOUDY    29  22  75 S3        30.25F
ROCHESTER/MAYO CLOUDY    31  22  71 CALM      30.26S
WINONA           N/A     34  23  64 CALM      30.29F
AUSTIN         MOSUNNY   32  21  64 CALM      30.25S
ALBERT LEA     CLOUDY    36  27  69 SE3       30.24F
DODGE CENTER   MOSUNNY   30  21  69 E3        30.24F
PRESTON        CLOUDY    30  21  69 W3        30.27F
OWATONNA       MOSUNNY   34  21  60 CALM      30.23F
FARIBAULT      MOSUNNY   32  23  69 CALM      30.24F
$$

...ELSEWHERE IN MINNESOTA...


CITY           SKY/WX    TMP DP  RH WIND       PRES   REMARKS
MINNEAPOLIS    CLOUDY    31  19  61 NW3       30.25F
INTNL FALLS    CLOUDY    26  19  74 VRB5      30.18F WCI  20
DULUTH         FLURRIES  28  23  81 S5        30.21S WCI  23
RED WING       CLOUDY    30  19  64 CALM      30.26F
REDWOOD FALLS  SUNNY     33  24  69 SE12      30.20F WCI  24
MANKATO        MOSUNNY   32  23  69 SE7       30.23F WCI  26
WORTHINGTON    CLOUDY    34  30  85 S16       30.18F WCI  24
FAIRMONT       SUNNY     34  26  72 S13       30.24S WCI  25
$$

...SOUTHWEST WISCONSIN...


CITY           SKY/WX    TMP DP  RH WIND       PRES   REMARKS
LA CROSSE      CLOUDY    34  23  64 S6        30.30S WCI  29
PRAIRIE DU CHI CLOUDY    34  24  67 CALM      30.31F
BOSCOBEL       CLOUDY    34  24  67 SW5       30.33S WCI  30
LONE ROCK      CLOUDY    33  23  66 SW7       30.32S WCI  27
PLATTEVILLE    CLOUDY    33  27  77 SW7       30.31F WCI  27
FORT MC COY    CLOUDY    33  22  65 W7        30.30S WCI  26
CAMP DOUGLAS   CLOUDY    32  19  59 CALM      30.29R
MAUSTON-NEW LI CLOUDY    32  20  62 CALM      30.28S
VIROQUA        CLOUDY    30  26  82 SW7       30.28S WCI  24
WIS DELLS      CLOUDY    32  20  62 W5        30.29S WCI  27
$$

...ELSEWHERE IN WISCONSIN...


CITY           SKY/WX    TMP DP  RH WIND       PRES   REMARKS
MILWAUKEE      CLOUDY    34  22  61 SW9       30.32S WCI  27
MADISON        FLURRIES  32  21  64 CALM      30.31R
GREEN BAY      CLOUDY    33  26  75 NW8       30.28R WCI  26
EAU CLAIRE     CLOUDY    30  24  78 W5        30.27S WCI  25
BLACK RVR FLS  CLOUDY    32  18  56 W5        30.29R WCI  28
MEDFORD        CLOUDY    28  21  75 NW5       30.24R WCI  23
WAUSAU         CLOUDY    29  21  72 W6        30.25R WCI  23
WIS RAPIDS     CLOUDY    31  23  72 SW5       30.29R WCI  26
MARSHFIELD     CLOUDY    29  22  75 W6        30.25R WCI  23
RICE LAKE      CLOUDY    30  24  77 SW5       30.28R WCI  25
$$

...NORTHEAST IOWA...


CITY           SKY/WX    TMP DP  RH WIND       PRES   REMARKS
WATERLOO       SUNNY     39  25  57 CALM      30.28F
DUBUQUE        CLOUDY    34  26  72 S7        30.31F WCI  28
DECORAH        CLOUDY    32  21  64 VRB7G13   30.27F WCI  26
MASON CITY     PTSUNNY   35  26  69 S8        30.27F WCI  29
CHARLES CITY   MOSUNNY   36  25  64 CALM      30.27F
OELWEIN        CLOUDY    36  25  64 CALM      30.29F
$$

...ELSEWHERE IN IOWA...


CITY           SKY/WX    TMP DP  RH WIND       PRES   REMARKS
DES MOINES     CLOUDY    41  30  65 S9        30.28F
IOWA CITY      CLOUDY    40  27  59 SW9       30.34F WCI  34
FORT DODGE     CLOUDY    39  28  65 S8        30.25F WCI  34
MARSHALLTOWN   CLOUDY    39  30  70 S6        30.27  WCI  35
CEDAR RAPIDS   CLOUDY    38  30  73 SW8       30.29F WCI  32
$$

...NORTHERN ILLINOIS...


CITY           SKY/WX    TMP DP  RH WIND       PRES   REMARKS
CHICAGO-OHARE  CLOUDY    33  23  66 W8        30.34R WCI  26
CHICAGO-MIDWAY CLOUDY    34  22  61 W8        30.35  WCI  27
MOLINE         CLOUDY    39  25  57 SW6       30.33F WCI  35
ROCKFORD       CLOUDY    35  24  64 W5        30.35F WCI  31
PEORIA         CLOUDY    37  27  67 CALM      30.36F
$$

NOTE: "FAIR" INDICATES FEW OR NO CLOUDS BELOW 12,000 FEET WITH NO
SIGNIFICANT WEATHER AND/OR OBSTRUCTIONS TO VISIBILITY. WIND
SPEEDS ARE IN MILES-PER-HOUR.




USA.gov is the U.S. government's official web portal to all federal, state and local government web resources and services.